Location: Newark
(30.8300°N, 83.2700°W)
Time: 12:13:34
(UTC+00:00)

Envisat - Visible Passes

Search period start: 22 September 2019 00:00
Search period end: 02 October 2019 00:00
Orbit: 764 x 766 km, 98.1° (Epoch: 22 September)

Date Brightness Start Highest point End Pass type
(mag) Time Alt. Az. Time Alt. Az. Time Alt. Az.
23 Sep 5.5 00:48:01 10° SSW 00:51:55 22° W 00:55:51 10° NW visible
24 Sep 3.8 00:10:05 10° S 00:15:02 55° W 00:20:01 10° NNW visible
25 Sep 6.2 01:16:03 10° WSW 01:17:37 11° W 01:19:11 10° WNW visible
26 Sep 5.1 00:36:15 10° SSW 00:40:36 29° W 00:45:00 10° NW visible
26 Sep 3.3 23:58:43 10° S 00:03:46 73° WSW 00:08:51 10° NNW visible
28 Sep 6.0 01:03:21 10° SW 01:06:16 15° W 01:09:11 10° WNW visible
29 Sep 4.6 00:24:38 10° SSW 00:29:19 38° W 00:34:02 10° NNW visible
29 Sep 3.0 23:47:27 10° SSE 23:52:31 86° ENE 23:57:38 10° N visible
01 Oct 5.6 00:51:15 10° SW 00:54:56 20° W 00:58:37 10° NW visible
